カタログに戻る

COSMOS 374 DEB

運用中LEO
NORAD 4617·DEBRIS·🇷🇺 Russia

打ち上げ Oct 23, 1970 から Baikonur Cosmodrome

Loading…

次のパス (今後24時間)

TLE

最新Source: Space-Track

元期: Sep 14, 2026, 22:19 UTC

1 04617U 70089D   26257.93027149  .00002472  00000-0  40694-3 0  9990
2 04617  62.9356  91.1771 0330168 345.2903  13.8732 14.42805300780921

AllMySatでCOSMOS 374 DEBをリアルタイム追跡

Download on the App Store